TimeCST,TemperatureF,Dew PointF,Humidity,Sea Level PressureIn,VisibilityMPH,Wind Direction,Wind SpeedMPH,Gust SpeedMPH,PrecipitationIn,Events,Conditions,WindDirDegrees,DateUTC
12:53 AM,46.0,37.0,71,30.10,10.0,NW,6.9,-,N/A,,Clear,310,2014-01-12 06:53:00
1:53 AM,45.0,36.0,71,30.11,10.0,NW,4.6,-,N/A,,Clear,320,2014-01-12 07:53:00
2:53 AM,43.0,36.0,76,30.11,10.0,NW,6.9,-,N/A,,Clear,320,2014-01-12 08:53:00
3:53 AM,39.9,36.0,86,30.12,10.0,Calm,Calm,-,N/A,,Clear,0,2014-01-12 09:53:00
4:53 AM,42.1,36.0,79,30.15,10.0,West,4.6,-,N/A,,Clear,280,2014-01-12 10:53:00
5:53 AM,39.9,35.1,83,30.17,10.0,Calm,Calm,-,N/A,,Clear,0,2014-01-12 11:53:00
6:53 AM,37.9,35.1,89,30.19,10.0,Calm,Calm,-,N/A,,Clear,0,2014-01-12 12:53:00
7:53 AM,44.1,39.9,85,30.23,10.0,Calm,Calm,-,N/A,,Clear,0,2014-01-12 13:53:00
8:53 AM,51.1,39.9,66,30.25,10.0,NNW,6.9,-,N/A,,Clear,340,2014-01-12 14:53:00
9:53 AM,55.0,37.9,53,30.26,10.0,Calm,Calm,-,N/A,,Clear,0,2014-01-12 15:53:00
10:53 AM,59.0,36.0,42,30.24,10.0,North,4.6,-,N/A,,Clear,360,2014-01-12 16:53:00
11:53 AM,60.1,35.1,39,30.21,10.0,Calm,Calm,-,N/A,,Clear,0,2014-01-12 17:53:00
12:53 PM,62.1,33.1,34,30.19,10.0,WNW,5.8,-,N/A,,Clear,300,2014-01-12 18:53:00
1:53 PM,62.1,32.0,32,30.18,10.0,Variable,3.5,-,N/A,,Clear,0,2014-01-12 19:53:00
2:53 PM,64.0,34.0,33,30.17,10.0,Calm,Calm,-,N/A,,Clear,0,2014-01-12 20:53:00
3:53 PM,63.0,32.0,31,30.17,10.0,SSW,3.5,-,N/A,,Clear,210,2014-01-12 21:53:00
4:53 PM,59.0,32.0,36,30.18,10.0,Calm,Calm,-,N/A,,Clear,0,2014-01-12 22:53:00
5:53 PM,53.1,37.9,57,30.19,10.0,Calm,Calm,-,N/A,,Clear,0,2014-01-12 23:53:00
6:53 PM,48.9,39.9,71,30.21,10.0,Calm,Calm,-,N/A,,Clear,0,2014-01-13 00:53:00
7:53 PM,48.0,37.0,66,30.21,10.0,SE,6.9,-,N/A,,Clear,140,2014-01-13 01:53:00
8:53 PM,46.9,37.9,71,30.21,10.0,SSE,5.8,-,N/A,,Clear,150,2014-01-13 02:53:00
9:53 PM,45.0,37.0,74,30.22,10.0,South,5.8,-,N/A,,Clear,180,2014-01-13 03:53:00
10:53 PM,44.1,37.0,76,30.20,10.0,South,5.8,-,N/A,,Clear,180,2014-01-13 04:53:00
11:53 PM,46.0,37.9,73,30.21,10.0,SSW,4.6,-,N/A,,Clear,210,2014-01-13 05:53:00